[[{"header":{"parameterUnit":"m.s-1","parameterCategory":1,"la1":30.2991,"la2":30.254,"lo1":-89.0895,"lo2":-89.0444,"dy":0.0017,"dx":0.0017,"nx":28,"ny":28,"refTime":"2025-02-06T09:00:00:Z","depth":0,"parameterNumber":2,"parameterNumberName":"U-component_of_WINDS"},"data":[0,0,0,0,0,0,0,0,0,0,0,0,0,0,0,0,0,0,0,0,0,0,0,0,0,0,0,0,0,0,0,0,0,0,0,0,0,0,0,0,0,0,0,0,0,0,0,0,0,0,0,0,0,0,0,0,0,0,-1.7801,-1.7801,0,-1.781,-1.781,-1.781,-1.7814,-1.7814,-1.7814,-1.7814,-1.7824,-1.7824,-1.7824,0,0,0,0,0,0,0,0,0,0,0,0,0,-1.7789,-1.7789,-1.7801,-1.7801,-1.7801,-1.781,-1.781,-1.781,-1.7814,-1.7814,-1.7814,-1.7814,-1.7824,-1.7824,-1.7825,0,0,0,0,0,0,0,0,0,0,0,0,0,-1.7796,-1.7789,-1.7801,-1.7804,-1.7805,-1.781,-1.781,-1.781,-1.7814,-1.7814,-1.7814,-1.7814,-1.7824,-1.7824,-1.7825,-1.7827,0,0,-1.7826,-1.7826,0,0,0,0,0,0,0,0,-1.7795,-1.7796,-1.7804,-1.7804,-1.7805,-1.7811,-1.7809,-1.7816,-1.7814,-1.7811,-1.7814,-1.7814,-1.782,-1.782,-1.7822,-1.7828,-1.7828,-1.7826,-1.7826,-1.7826,-1.7826,0,0,0,0,0,0,0,-1.7795,-1.7796,-1.7805,-1.7804,-1.7804,-1.7806,-1.7807,-1.7811,-1.7815,-1.7811,-1.7811,-1.7812,-1.782,-1.7822,-1.7822,-1.7828,-1.7826,-1.7826,-1.7826,-1.7827,-1.7837,-1.7837,0,0,0,0,0,0,-1.7794,-1.7795,-1.7804,-1.7805,-1.78,-1.7806,-1.7807,-1.7809,-1.7815,-1.7816,-1.7812,-1.7813,-1.7821,-1.7822,-1.7823,-1.7827,-1.7826,-1.7827,-1.7827,-1.7837,-1.7837,-1.7837,0,0,0,0,0,0,-1.7793,-1.7794,-1.7804,-1.78,-1.7802,-1.7806,-1.7808,-1.7809,-1.7811,-1.7816,-1.7817,-1.7813,-1.7821,-1.7822,-1.7826,-1.7827,-1.7827,-1.7827,-1.7837,-1.7837,-1.7837,-1.7834,0,0,0,0,0,0,-1.7793,-1.7794,-1.7795,-1.78,-1.7802,-1.7807,-1.7808,-1.7809,-1.7812,-1.7812,-1.7817,-1.7818,-1.7821,-1.7826,-1.7827,-1.7827,-1.7827,-1.7837,-1.7837,-1.7837,-1.7834,-1.7834,-1.7834,0,0,0,0,0,-1.7793,-1.7793,-1.7795,-1.7796,-1.7803,-1.7807,-1.7808,-1.7811,-1.7812,-1.7813,-1.7816,-1.7818,-1.7827,-1.7826,-1.7827,-1.7828,-1.7837,-1.7837,-1.7837,-1.7834,-1.7834,-1.7834,0,0,0,0,0,0,-1.7788,-1.7794,-1.7796,-1.7798,-1.7802,-1.7807,-1.7809,-1.7811,-1.7814,-1.7814,-1.7819,-1.782,-1.7824,-1.7826,-1.7825,-1.7831,-1.7832,-1.7833,-1.7829,-1.7829,-1.7829,-1.7828,-1.7828,0,0,0,0,0,-1.7787,-1.779,-1.7795,-1.7797,-1.7799,-1.7804,-1.7805,-1.7808,-1.7812,-1.7813,-1.7817,-1.7821,-1.7825,-1.7827,-1.7831,-1.7835,-1.7836,-1.7836,-1.7836,-1.7836,-1.7836,-1.7839,-1.7839,-1.7838,-1.7838,-1.7838,0,0,-1.7786,-1.779,-1.7791,-1.7796,-1.7799,-1.7803,-1.7805,-1.7808,-1.781,-1.7814,-1.7818,-1.7821,-1.7826,-1.783,-1.7832,-1.7832,-1.7837,-1.7836,-1.7836,-1.7836,-1.7839,-1.7839,-1.7839,-1.7838,-1.7838,-1.7838,0,0,-1.7785,-1.7788,-1.779,-1.7793,-1.7798,-1.7801,-1.7802,-1.7807,-1.7809,-1.7813,-1.7817,-1.782,-1.7826,-1.783,-1.7832,-1.7834,-1.7836,-1.7835,-1.7834,-1.7837,-1.7837,-1.7837,-1.7838,-1.7838,-1.7835,-1.7835,-1.7835,0,-1.7782,-1.7786,-1.7791,-1.7793,-1.7796,-1.78,-1.7803,-1.7806,-1.7811,-1.7813,-1.7814,-1.7823,-1.7826,-1.7831,-1.7832,-1.7834,-1.7835,-1.7834,-1.7837,-1.7837,-1.7837,-1.7838,-1.7838,-1.7835,-1.7835,-1.7835,-1.7835,0,-1.7783,-1.7786,-1.7788,-1.7793,-1.7796,-1.7799,-1.7804,-1.7806,-1.7809,-1.7812,-1.7817,-1.7822,-1.7827,-1.7828,-1.7831,-1.7834,-1.7834,-1.7836,-1.7837,-1.7837,-1.7838,-1.7838,-1.7835,-1.7835,-1.7835,-1.7835,0,0,-1.7778,-1.7787,-1.7787,-1.779,-1.7796,-1.7799,-1.7803,-1.7808,-1.781,-1.7814,-1.7817,-1.7823,-1.7825,-1.7828,-1.7831,-1.7834,-1.7835,-1.7835,-1.7835,-1.7835,-1.784,-1.7838,-1.7839,-1.7837,-1.7837,-1.7837,-1.7839,0,-1.7778,-1.7783,-1.7788,-1.7792,-1.7795,-1.78,-1.7803,-1.7808,-1.7811,-1.7815,-1.7819,-1.7823,-1.7825,-1.7827,-1.783,-1.7834,-1.7836,-1.7834,-1.784,-1.784,-1.7838,-1.7839,-1.7837,-1.7839,-1.784,-1.784,-1.784,0,-1.7778,-1.7782,-1.7786,-1.7793,-1.7795,-1.7797,-1.7803,-1.7806,-1.7812,-1.7814,-1.7818,-1.7822,-1.7826,-1.7827,-1.7834,-1.7833,-1.7836,-1.7839,-1.7839,-1.7839,-1.784,-1.7839,-1.7839,-1.784,-1.784,-1.784,-1.784,0,-1.7773,-1.778,-1.7784,-1.7787,-1.7794,-1.7796,-1.78,-1.7805,-1.7808,-1.7813,-1.7816,-1.7821,-1.7824,-1.7829,-1.7834,-1.7835,-1.7841,-1.7842,-1.7843,-1.7843,-1.7844,-1.7843,-1.7844,-1.7846,-1.7846,-1.7846,-1.7846,0,-1.7772,-1.7775,-1.7782,-1.7785,-1.7788,-1.7794,-1.7797,-1.7801,-1.7806,-1.781,-1.7815,-1.7818,-1.7825,-1.7829,-1.7834,-1.7839,-1.784,-1.7843,-1.7844,-1.7842,-1.7842,-1.7844,-1.7844,-1.7846,-1.7846,-1.7846,-1.7846,0,-1.7768,-1.7773,-1.7777,-1.7785,-1.7787,-1.7789,-1.7795,-1.7798,-1.7803,-1.7807,-1.7809,-1.7816,-1.7821,-1.7827,-1.7835,-1.7838,-1.7843,-1.7845,-1.7841,-1.7842,-1.7842,-1.7842,-1.7844,-1.7845,-1.7847,-1.7847,-1.7847,0,-1.7766,-1.7768,-1.7776,-1.7779,-1.7782,-1.7786,-1.7789,-1.7795,-1.7799,-1.7806,-1.7808,-1.7814,-1.7819,-1.7828,-1.7835,-1.7841,-1.7843,-1.7843,-1.7843,-1.7842,-1.7843,-1.7842,-1.7843,-1.7842,-1.7842,-1.7842,-1.7842,0,-1.7763,-1.7766,-1.777,-1.7775,-1.7779,-1.7784,-1.7789,-1.7791,-1.7798,-1.7802,-1.7808,-1.7812,-1.782,-1.7826,-1.7833,-1.7838,-1.7841,-1.7842,-1.7843,-1.7841,-1.7838,-1.784,-1.784,-1.7842,-1.7842,-1.7842,-1.7842,-1.7842,-1.776,-1.7762,-1.7768,-1.7773,-1.7777,-1.7782,-1.7785,-1.779,-1.7795,-1.7802,-1.7806,-1.7812,-1.7819,-1.7829,-1.7833,-1.7838,-1.7839,-1.784,-1.784,-1.784,-1.784,-1.7838,-1.784,-1.784,-1.784,-1.784,-1.784,0,-1.7756,-1.7761,-1.7765,-1.7772,-1.7776,-1.778,-1.7786,-1.7789,-1.7794,-1.78,-1.7805,-1.7812,-1.7819,-1.7826,-1.7833,-1.7836,-1.7838,-1.7838,-1.7837,-1.7838,-1.7839,-1.7837,-1.7836,-1.7836,-1.7836,-1.7836,-1.7836,-1.7836,-1.7755,-1.7759,-1.7763,-1.777,-1.7775,-1.778,-1.7783,-1.7788,-1.7793,-1.7801,-1.7806,-1.7811,-1.7817,-1.7825,-1.7832,-1.7834,-1.7836,-1.7835,-1.7838,-1.7838,-1.7838,-1.7838,-1.7837,-1.7836,-1.7836,-1.7837,-1.7837,-1.7837]},{"header":{"parameterUnit":"m.s-1","parameterCategory":1,"la1":30.2991,"la2":30.254,"lo1":-89.0895,"lo2":-89.0444,"dy":0.0017,"dx":0.0017,"nx":28,"ny":28,"refTime":"2025-02-06T09:00:00:Z","depth":0,"parameterNumber":3,"parameterNumberName":"V-component_of_WINDS"},"data":[0,0,0,0,0,0,0,0,0,0,0,0,0,0,0,0,0,0,0,0,0,0,0,0,0,0,0,0,0,0,0,0,0,0,0,0,0,0,0,0,0,0,0,0,0,0,0,0,0,0,0,0,0,0,0,0,0,0,3.3055,3.3055,0,3.3116,3.3117,3.3117,3.3109,3.3108,3.3107,3.3106,3.3166,3.3168,3.3171,0,0,0,0,0,0,0,0,0,0,0,0,0,3.2927,3.2929,3.3055,3.3055,3.3056,3.3116,3.3117,3.3118,3.3109,3.3108,3.3107,3.3106,3.3165,3.3168,3.3171,0,0,0,0,0,0,0,0,0,0,0,0,0,3.2985,3.293,3.3055,3.306,3.3061,3.3116,3.3117,3.3118,3.311,3.3108,3.3107,3.3105,3.3164,3.3168,3.3171,3.3224,0,0,3.3183,3.3184,0,0,0,0,0,0,0,0,3.2981,3.2989,3.3058,3.3059,3.3061,3.3104,3.3093,3.3153,3.311,3.3091,3.3106,3.3105,3.3146,3.3151,3.3166,3.3227,3.323,3.3183,3.3185,3.3187,3.3188,0,0,0,0,0,0,0,3.2977,3.2987,3.3079,3.3059,3.3061,3.3057,3.3064,3.3105,3.3126,3.3093,3.3092,3.31,3.3146,3.3162,3.3167,3.3231,3.3183,3.3186,3.3189,3.319,3.3338,3.334,0,0,0,0,0,0,3.2973,3.2983,3.3077,3.3081,3.3017,3.3061,3.3068,3.3091,3.3126,3.3129,3.3101,3.3099,3.3157,3.3163,3.3169,3.3234,3.3187,3.3191,3.3193,3.3337,3.3339,3.3341,0,0,0,0,0,0,3.297,3.2981,3.3074,3.3032,3.3044,3.3065,3.3091,3.3093,3.3109,3.3132,3.3135,3.3113,3.3156,3.3164,3.3211,3.3236,3.3192,3.3196,3.3335,3.3337,3.334,3.3365,0,0,0,0,0,0,3.2966,3.298,3.3002,3.3033,3.3046,3.3117,3.3092,3.3095,3.3116,3.3114,3.3145,3.3148,3.3155,3.3205,3.3215,3.3241,3.3199,3.3333,3.3336,3.3339,3.3362,3.3368,3.3373,0,0,0,0,0,3.2962,3.3006,3.3003,3.3014,3.3073,3.3118,3.3126,3.3134,3.3118,3.3139,3.3154,3.3147,3.3232,3.321,3.3221,3.3248,3.3331,3.3335,3.3339,3.3359,3.3366,3.3373,0,0,0,0,0,0,3.2976,3.301,3.3007,3.3062,3.3088,3.3117,3.3144,3.3141,3.317,3.3167,3.3175,3.3182,3.3229,3.3243,3.3219,3.3301,3.3279,3.3285,3.3291,3.3298,3.3304,3.33,3.3202,0,0,0,0,0,3.2986,3.302,3.3047,3.3093,3.3106,3.3123,3.3142,3.3146,3.3172,3.3183,3.3201,3.3225,3.3257,3.3278,3.3309,3.3363,3.3369,3.3387,3.3392,3.3397,3.3402,3.3432,3.344,3.3353,3.3353,3.3353,0,0,3.3006,3.3029,3.305,3.3097,3.3117,3.3152,3.3132,3.3169,3.3195,3.3188,3.3234,3.3248,3.3275,3.3327,3.335,3.3339,3.3427,3.3401,3.3405,3.3408,3.3437,3.3445,3.3452,3.3356,3.3355,3.3355,0,0,3.3061,3.3081,3.3123,3.3143,3.3174,3.3184,3.3194,3.3223,3.3233,3.3279,3.3275,3.3304,3.3359,3.3379,3.3397,3.3458,3.3453,3.3467,3.3497,3.3526,3.3533,3.3539,3.3562,3.357,3.3473,3.3473,3.3473,0,3.3082,3.3136,3.3143,3.3182,3.3202,3.3198,3.3239,3.3258,3.3297,3.3311,3.3298,3.3367,3.3385,3.3441,3.3456,3.347,3.3481,3.3465,3.3532,3.3538,3.3544,3.3565,3.3574,3.3474,3.3474,3.3474,3.3474,0,3.316,3.3197,3.3226,3.3265,3.3289,3.3328,3.3341,3.3363,3.3364,3.3376,3.3423,3.3444,3.348,3.3492,3.3494,3.3548,3.3541,3.353,3.3508,3.3554,3.3574,3.3582,3.3477,3.3476,3.3476,3.3475,0,0,3.3228,3.327,3.3281,3.3299,3.3332,3.336,3.3398,3.3433,3.3453,3.3479,3.3511,3.3557,3.3547,3.3567,3.357,3.3595,3.3643,3.3581,3.3582,3.3593,3.3705,3.3715,3.3724,3.3639,3.3641,3.3642,3.3703,0,3.3288,3.3358,3.3365,3.3427,3.3461,3.3457,3.349,3.3513,3.3524,3.3554,3.3565,3.3598,3.3582,3.3594,3.3619,3.3632,3.3666,3.3628,3.3669,3.3671,3.3665,3.3735,3.3745,3.3802,3.3711,3.3712,3.3713,0,3.3367,3.3397,3.3463,3.3491,3.3505,3.3535,3.3568,3.3596,3.3622,3.3628,3.365,3.3649,3.3688,3.3663,3.3716,3.369,3.3707,3.3716,3.3718,3.3723,3.3696,3.3743,3.382,3.3829,3.3726,3.3725,3.3724,0,3.3412,3.3467,3.3514,3.3529,3.3563,3.3584,3.3599,3.3623,3.3643,3.3671,3.3684,3.3716,3.3733,3.3757,3.3765,3.3746,3.3817,3.3793,3.3824,3.3823,3.384,3.384,3.3922,3.3849,3.3849,3.3848,3.3848,0,3.3478,3.3519,3.3535,3.3564,3.3609,3.3616,3.3659,3.3673,3.3694,3.3725,3.3721,3.375,3.3757,3.3787,3.3793,3.3836,3.3843,3.3849,3.385,3.3851,3.385,3.3863,3.386,3.3851,3.385,3.385,3.3849,0,3.3537,3.3549,3.36,3.3627,3.3635,3.3667,3.369,3.3717,3.3727,3.3766,3.3775,3.379,3.3825,3.3834,3.3875,3.3879,3.393,3.3927,3.3922,3.3923,3.3953,3.3951,3.4048,3.4062,3.3978,3.3979,3.3979,0,3.358,3.3611,3.3642,3.3663,3.3679,3.3712,3.3733,3.374,3.3762,3.3793,3.3816,3.385,3.3878,3.3933,3.3947,3.3978,3.3977,3.4009,3.3982,3.3981,3.3979,3.3978,3.3981,3.4015,3.4016,3.4016,3.4017,0,3.3655,3.3659,3.369,3.3724,3.3749,3.3775,3.38,3.3817,3.3827,3.3852,3.3888,3.3909,3.3951,3.3985,3.4016,3.403,3.4025,3.4025,3.4034,3.4035,3.4032,3.4035,3.3938,3.4023,3.4023,3.4022,3.4022,3.4022,3.3708,3.3736,3.3762,3.3796,3.3816,3.3839,3.3866,3.388,3.391,3.3946,3.3947,3.3986,3.4009,3.4051,3.4066,3.4096,3.4086,3.4099,3.4102,3.4106,3.4109,3.4026,3.4101,3.4101,3.4101,3.4101,3.4101,0,3.3784,3.3801,3.3832,3.3868,3.3895,3.3888,3.3915,3.3938,3.3972,3.3995,3.4022,3.4063,3.4095,3.4112,3.4144,3.4164,3.4163,3.4173,3.4172,3.4175,3.4115,3.4105,3.4173,3.4173,3.4173,3.4173,3.4173,3.4173,3.3828,3.3874,3.3881,3.3937,3.3952,3.3992,3.4008,3.4029,3.4047,3.4093,3.412,3.413,3.415,3.4184,3.4213,3.4217,3.4229,3.424,3.4243,3.4187,3.418,3.4173,3.4163,3.4242,3.4243,3.4301,3.4301,3.4302]}]]